Location: Boiro
(42.6475°N, 8.8834°W)
Time: 08:08:11
(UTC+01:00)

SR - Pass Details

Date: 08 December 2021
Orbit: 583 x 872 km, 66.7° (Epoch: 16 January)

Event Time Altitude Azimuth Distance (km) Brightness Sun altitude
Rises 23:47:47 0° 211° (SSW) 2,990 - -61.3°
Reaches altitude 10° 23:50:09 10° 212° (SSW) 2,040 - -61.7°
Maximum altitude 23:54:43 84° 300° (WNW) 625 - -62.3°
Drops below altitude 10° 23:59:04 10° 29° (NNE) 1,935 - -62.9°
Sets 00:01:16 0° 31° (NNE) 2,824 - -63.2°
